Morrisville, VT

7:50 PM EDT on October 14, 2019 (GMT -0400)
Morrisville Stowe State

Weather History for KMVL - August, 2019

Change the Weather History Date:

Monday, August 26, 2019

  Actual Average Record
Temperature  
Mean Temperature 60 °F 64 °F  
Max Temperature 79 °F 76 °F 99 °F (2013)
Min Temperature 42 °F 52 °F 40 °F (2017)
Degree Days  
Heating Degree Days 4 3  
Month to date heating degree days 42 50  
Since 1 June heating degree days 195 203  
Since 1 July heating degree days 52 80  
Cooling Degree Days 0 2  
Month to date cooling degree days 57 68  
Year to date cooling degree days 239 236  
Since 1 June cooling degree days 238 228  
Growing Degree Days 10 (Base 50)    
Moisture  
Dew Point 46 °F    
Average Humidity 79    
Maximum Humidity 100    
Minimum Humidity 30    
Precipitation  
Precipitation 0.00 in 0.12 in 0.25 in (1998)
Month to date precipitation 3.05 3.50  
Year to date precipitation 26.49 23.23  
Sea Level Pressure  
Sea Level Pressure 30.27 in    
Wind  
Wind Speed 1 mph ()    
Max Wind Speed 9 mph    
Max Gust Speed 13 mph    
Visibility 6.6 miles    
Events Fog    
T = Trace of Precipitation, MM = Missing Value Source: Averaged Metar Reports

Daily Weather History Graph

Daily Weather History Graph

Search for Another Location

Airport or City:

Astronomy

Aug. 26, 2019 Rise Set
Actual Time 6:05 AM EDT 7:37 PM EDT
Civil Twilight 5:35 AM EDT 8:08 PM EDT
Nautical Twilight 4:58 AM EDT 8:45 PM EDT
Astronomical Twilight 4:18 AM EDT 9:24 PM EDT
Moon 1:19 AM EDT (8/26) 5:07 PM EDT (8/26)
Length of Visible Light 14h 33m
Length of Day
13h 32m
Waning Crescent, 19% of the Moon is Illuminated
Aug 26
Waning Crescent
Aug 30
New
Sep 5
First Quarter
Sep 14
Full
Sep 21
Last Quarter

Hourly Weather History & Observations

Time (EDT) Temp. Windchill Dew Point Humidity Pressure Visibility Wind Dir Wind Speed Gust Speed Precip Events Conditions
12:54 AM 46.9 °F - 45.0 °F 93% 30.32 in 10.0 mi Calm Calm - N/A   Clear
1:54 AM 46.9 °F - 45.0 °F 93% 30.32 in 10.0 mi Calm Calm - N/A   Clear
2:54 AM 45.0 °F - 43.0 °F 93% 30.32 in 8.0 mi Calm Calm - N/A   Partly Cloudy
3:35 AM 43.0 °F - 42.1 °F 97% 30.31 in 1.8 mi Calm Calm - N/A   Scattered Clouds
3:40 AM 44.1 °F - 43.0 °F 96% 30.31 in 1.0 mi Calm Calm - N/A   Mist
3:54 AM 44.1 °F - 43.0 °F 96% 30.32 in 1.0 mi Calm Calm - N/A   Mist
4:14 AM 43.0 °F - 42.1 °F 97% 30.31 in 2.0 mi Calm Calm - N/A   Overcast
4:22 AM 43.0 °F - 42.1 °F 97% 30.31 in 6.0 mi Calm Calm - N/A   Overcast
4:33 AM 42.1 °F - 41.0 °F 96% 30.31 in 1.8 mi Calm Calm - N/A   Mostly Cloudy
4:54 AM 42.1 °F - 41.0 °F 96% 30.32 in 1.0 mi Calm Calm - N/A   Mist
5:04 AM 42.1 °F 40.2 °F 41.0 °F 96% 30.31 in 0.8 mi SW 3.5 mph - N/A   Mist
5:54 AM 43.0 °F - 42.1 °F 97% 30.33 in 0.5 mi Calm Calm - N/A Fog Fog
6:54 AM 44.1 °F - 43.0 °F 96% 30.35 in 0.2 mi Calm Calm - N/A Fog Fog
7:54 AM 46.0 °F - 45.0 °F 96% 30.35 in 0.5 mi Calm Calm - N/A Fog Fog
8:00 AM 46.9 °F - 46.0 °F 97% 30.33 in 1.2 mi Calm Calm - N/A   Overcast
8:13 AM 48.0 °F - 46.9 °F 96% 30.33 in 3.0 mi Calm Calm - N/A   Overcast
8:46 AM 50.0 °F - 48.9 °F 96% 30.33 in 10.0 mi Calm Calm - N/A   Scattered Clouds
8:54 AM 51.1 °F - 48.0 °F 89% 30.34 in 10.0 mi Calm Calm - N/A   Partly Cloudy
9:54 AM 61.0 °F - 48.0 °F 62% 30.32 in 10.0 mi Calm Calm - N/A   Clear
10:54 AM 66.0 °F - 48.9 °F 54% 30.30 in 10.0 mi Calm Calm - N/A   Clear
11:54 AM 72.0 °F - 48.0 °F 43% 30.27 in 10.0 mi East 6.9 mph - N/A   Clear
12:54 PM 73.9 °F - 50.0 °F 43% 30.25 in 10.0 mi Variable 5.8 mph - N/A   Clear
1:54 PM 75.9 °F - 48.0 °F 37% 30.22 in 10.0 mi Variable 3.5 mph - N/A   Clear
2:54 PM 77.0 °F - 46.0 °F 33% 30.20 in 10.0 mi ENE 4.6 mph - N/A   Clear
3:54 PM 78.1 °F - 44.1 °F 30% 30.19 in 10.0 mi ENE 6.9 mph - N/A   Clear
4:54 PM 77.0 °F - 44.1 °F 31% 30.17 in 10.0 mi ESE 4.6 mph - N/A   Clear
5:54 PM 75.9 °F - 48.0 °F 37% 30.16 in 10.0 mi Calm Calm - N/A   Clear
6:54 PM 64.9 °F - 54.0 °F 68% 30.17 in 10.0 mi Calm Calm - N/A   Clear
7:54 PM 59.0 °F - 55.0 °F 87% 30.17 in 10.0 mi South 3.5 mph - N/A   Clear
8:54 PM 55.0 °F - 52.0 °F 89% 30.18 in 10.0 mi Calm Calm - N/A   Clear
9:54 PM 52.0 °F - 50.0 °F 93% 30.18 in 10.0 mi South 3.5 mph - N/A   Clear
10:54 PM 51.1 °F - 48.9 °F 92% 30.17 in 10.0 mi Calm Calm - N/A   Clear
11:54 PM 50.0 °F - 48.0 °F 93% 30.16 in 10.0 mi Calm Calm - N/A   Clear